�N����,����,�~����,�C��,���x,�C��,����,���ϕ���,�ő�u�ԕ���,�ő厞����,���˗�,�I�_���x,�n�����x,�ő啗���N��,DTYPE
"23/07/28","00:10",0.0,26.7,86.3,1009.0,298.6,0.8,1.4,313.0,0.00,24.3,26.3,"00:00:56",1
"23/07/28","00:20",0.0,26.8,86.7,1009.0,325.8,1.1,1.4,330.5,0.00,24.4,26.2,"00:15:52",1
"23/07/28","00:30",0.0,26.4,87.1,1009.0,282.9,0.6,1.1,347.2,0.00,24.1,26.3,"00:20:24",1
"23/07/28","00:40",0.0,26.3,87.4,1009.5,306.2,1.0,1.6,336.2,0.00,24.1,26.6,"00:33:20",1
"23/07/28","00:50",0.0,26.3,87.6,1009.0,302.9,1.1,1.7,344.1,0.00,24.1,26.1,"00:44:16",1
"23/07/28","01:00",0.0,26.4,87.7,1009.3,311.5,1.0,1.4,339.9,0.00,24.2,25.9,"00:54:16",1
"23/07/28","01:10",0.0,26.2,87.8,1009.3,303.2,1.2,2.0,310.1,0.00,24.1,26.2,"01:05:12",1
"23/07/28","01:20",0.0,26.2,87.8,1009.5,267.2,0.6,1.2,248.1,0.00,24.1,26.2,"01:16:32",1
"23/07/28","01:30",0.0,26.2,87.8,1009.0,324.1,1.1,1.7,319.5,0.00,24.1,26.2,"01:23:36",1
"23/07/28","01:40",0.0,26.1,88.0,1009.0,289.9,0.5,1.3,344.6,0.00,24.0,26.2,"01:30:40",1
"23/07/28","01:50",0.0,26.0,88.1,1009.0,286.4,0.7,1.3,253.1,0.00,23.9,26.1,"01:41:36",1
"23/07/28","02:00",0.0,26.0,88.2,1008.8,299.3,0.7,1.6,328.2,0.00,23.9,26.2,"01:58:40",1
"23/07/28","02:10",0.0,26.0,88.2,1008.8,322.0,1.0,1.8,313.9,0.00,23.9,26.1,"02:03:28",1
"23/07/28","02:20",0.0,25.9,88.5,1009.0,294.1,0.7,1.2,308.3,0.00,23.9,26.1,"02:15:44",1
"23/07/28","02:30",0.0,25.9,88.6,1008.8,283.7,0.8,1.9,308.5,0.00,23.9,26.0,"02:29:28",1
"23/07/28","02:40",0.0,26.0,88.5,1008.8,305.1,1.0,1.8,318.9,0.00,24.0,25.8,"02:34:08",1
"23/07/28","02:50",0.0,25.9,88.5,1009.3,282.1,0.7,1.4,323.3,0.00,23.9,25.9,"02:49:12",1
"23/07/28","03:00",0.0,25.9,88.6,1009.3,305.3,1.1,2.2,354.1,0.00,23.9,25.9,"02:54:32",1
"23/07/28","03:10",0.0,25.9,88.6,1009.3,309.9,1.1,1.6,309.2,0.00,23.9,25.5,"03:00:16",1
"23/07/28","03:20",0.0,25.8,88.6,1009.3,297.0,0.8,1.6,349.7,0.00,23.8,25.8,"03:18:32",1
"23/07/28","03:30",0.0,25.8,88.7,1009.3,286.9,1.0,1.7,318.3,0.00,23.8,25.9,"03:20:16",1
"23/07/28","03:40",0.0,25.7,88.8,1009.5,281.7,0.8,1.7,324.0,0.00,23.8,25.9,"03:31:28",1
"23/07/28","03:50",0.0,25.7,89.0,1009.3,297.2,0.8,1.8,322.8,0.00,23.8,25.9,"03:48:56",1
"23/07/28","04:00",0.0,25.7,89.1,1009.5,321.0,1.2,2.4,330.0,0.00,23.8,25.7,"03:50:48",1
"23/07/28","04:10",0.0,25.5,89.1,1009.5,313.0,0.7,1.2,336.1,0.00,23.6,25.6,"04:03:20",1
"23/07/28","04:20",0.0,25.5,89.5,1009.7,313.2,1.1,2.1,332.0,0.00,23.7,25.5,"04:16:48",1
"23/07/28","04:30",0.0,25.5,89.7,1009.7,286.7,0.8,1.8,324.6,0.00,23.7,25.6,"04:28:16",1
"23/07/28","04:40",0.0,25.5,89.8,1009.7,292.1,0.7,1.9,240.7,0.00,23.7,25.6,"04:32:16",1
"23/07/28","04:50",0.0,25.4,89.8,1010.2,317.6,0.7,1.6,344.4,0.00,23.6,25.7,"04:41:20",1
"23/07/28","05:00",0.0,25.2,90.1,1010.2,297.7,0.7,1.3,318.4,0.00,23.5,25.6,"04:57:52",1
"23/07/28","05:10",0.0,25.2,90.4,1010.4,326.3,1.1,2.1,333.0,0.00,23.6,25.3,"05:06:32",1
"23/07/28","05:20",0.0,25.2,90.6,1010.4,285.0,0.6,1.3,310.8,0.00,23.6,25.6,"05:17:28",1
"23/07/28","05:30",0.0,25.3,90.7,1010.0,309.4,1.0,1.6,322.9,0.00,23.7,25.5,"05:26:16",1
"23/07/28","05:40",0.0,25.2,90.8,1010.2,305.1,0.7,1.4,336.8,0.00,23.6,25.7,"05:30:48",1
"23/07/28","05:50",0.0,25.4,91.0,1010.0,288.2,0.7,1.4,323.8,0.00,23.9,25.3,"05:45:12",1
"23/07/28","06:00",0.0,25.7,91.0,1010.0,307.4,1.1,2.0,341.7,0.01,24.2,25.4,"05:55:44",1
"23/07/28","06:10",0.0,26.0,90.9,1010.2,304.0,0.7,1.2,325.8,0.02,24.4,25.2,"06:00:24",1
"23/07/28","06:20",0.0,26.5,90.7,1010.2,333.2,0.6,1.2,331.3,0.04,24.9,25.6,"06:10:56",1
"23/07/28","06:30",0.0,27.2,90.4,1010.2,295.9,0.3,1.0,250.3,0.05,25.5,25.5,"06:28:24",1
"23/07/28","06:40",0.0,28.1,89.9,1010.2,348.0,0.1,0.5,343.9,0.07,26.3,25.6,"06:32:00",1
"23/07/28","06:50",0.0,28.5,88.5,1010.0,5.7,0.2,0.6,333.5,0.08,26.5,25.4,"06:49:12",1
"23/07/28","07:00",0.0,28.8,87.4,1010.0,29.6,0.2,0.8,130.1,0.10,26.5,25.4,"06:59:52",1
"23/07/28","07:10",0.0,29.2,84.6,1010.2,161.6,0.2,1.1,72.4,0.12,26.4,25.4,"07:08:32",1
"23/07/28","07:20",0.0,30.2,81.8,1010.7,32.4,0.2,1.3,26.4,0.13,26.8,25.3,"07:19:52",1
"23/07/28","07:30",0.0,30.9,76.4,1010.9,6.4,0.5,1.1,74.9,0.16,26.3,25.4,"07:22:40",1
"23/07/28","07:40",0.0,31.1,74.7,1010.7,341.0,0.5,1.1,357.3,0.18,26.1,25.7,"07:32:24",1
"23/07/28","07:50",0.0,31.6,73.4,1011.2,131.8,0.5,1.2,111.1,0.20,26.3,25.4,"07:47:36",1
"23/07/28","08:00",0.0,31.9,71.9,1011.4,140.7,0.6,1.3,18.5,0.23,26.2,25.7,"07:53:52",1
"23/07/28","08:10",0.0,32.2,70.3,1011.4,57.8,0.6,1.8,351.4,0.25,26.1,25.5,"08:02:48",1
"23/07/28","08:20",0.0,32.5,68.7,1011.6,137.1,0.5,1.6,124.0,0.27,26.0,25.4,"08:15:28",1
"23/07/28","08:30",0.0,32.8,67.0,1011.9,80.5,0.7,1.8,352.9,0.29,25.9,25.6,"08:23:44",1
"23/07/28","08:40",0.0,33.1,67.1,1012.3,54.0,0.5,1.7,68.2,0.32,26.2,25.6,"08:32:32",1
"23/07/28","08:50",0.0,32.8,65.7,1012.3,174.7,1.1,2.4,173.7,0.34,25.6,25.7,"08:45:12",1
"23/07/28","09:00",0.0,33.3,65.3,1012.3,61.5,1.0,2.8,40.6,0.38,25.9,25.7,"08:57:52",1
"23/07/28","09:10",0.0,33.5,62.3,1012.6,51.2,0.7,1.6,354.5,0.28,25.3,25.7,"09:03:36",1
"23/07/28","09:20",0.0,33.6,62.9,1012.3,358.0,0.5,1.6,119.6,0.38,25.6,25.8,"09:14:32",1
"23/07/28","09:30",0.0,32.6,64.4,1012.1,2.6,1.2,2.8,349.6,0.16,25.0,25.9,"09:20:02",1
"23/07/28","09:40",0.0,32.7,66.1,1011.9,11.1,1.0,2.1,345.5,0.31,25.6,26.0,"09:34:16",1
"23/07/28","09:50",0.0,33.3,64.2,1011.9,328.7,0.6,1.4,357.8,0.29,25.7,25.9,"09:45:20",1
"23/07/28","10:00",0.0,33.3,64.1,1011.6,205.7,1.1,2.7,230.1,0.32,25.6,25.8,"09:53:04",1
"23/07/28","10:10",0.0,33.7,62.2,1011.9,201.2,1.0,2.5,205.4,0.45,25.5,25.9,"10:00:16",1
"23/07/28","10:20",0.0,34.8,60.2,1011.9,165.5,0.7,2.0,211.5,0.47,26.0,26.1,"10:11:28",1
"23/07/28","10:30",0.0,35.6,60.9,1012.1,155.0,1.0,2.6,227.5,0.50,26.9,26.1,"10:22:40",1
"23/07/28","10:40",0.0,35.4,58.4,1012.3,180.4,1.0,2.6,235.6,0.50,26.0,26.3,"10:34:56",1
"23/07/28","10:50",0.0,35.9,58.6,1012.1,165.8,0.8,2.2,163.9,0.51,26.5,26.4,"10:43:52",1
"23/07/28","11:00",0.0,35.4,56.0,1011.9,209.8,1.8,4.0,217.9,0.51,25.3,26.3,"10:53:28",1
"23/07/28","11:10",0.0,35.9,56.4,1011.9,200.5,1.3,2.9,200.3,0.53,25.9,26.5,"11:03:28",1
"23/07/28","11:20",0.0,35.8,54.9,1011.9,203.8,1.3,3.7,184.6,0.55,25.4,26.6,"11:12:16",1
"23/07/28","11:30",0.0,36.3,54.3,1011.9,167.2,1.5,3.4,146.2,0.56,25.6,26.7,"11:28:16",1
"23/07/28","11:40",0.0,36.1,52.9,1011.6,223.0,1.8,2.9,184.0,0.57,25.0,26.6,"11:30:16",1
"23/07/28","11:50",0.0,36.7,51.9,1011.4,188.9,1.2,3.6,229.2,0.59,25.2,26.8,"11:40:24",1
"23/07/28","12:00",0.0,36.3,52.6,1011.2,177.1,2.2,4.8,192.8,0.57,25.1,27.1,"11:58:32",1
"23/07/28","12:10",0.0,37.0,51.2,1011.6,147.6,1.3,3.9,195.4,0.58,25.3,26.9,"12:00:24",1
"23/07/28","12:20",0.0,36.6,51.3,1010.9,130.7,0.7,1.9,355.6,0.22,25.0,27.3,"12:10:56",1
"23/07/28","12:30",0.0,35.4,56.5,1010.2,185.6,1.5,4.0,226.9,0.22,25.5,27.2,"12:23:44",1
"23/07/28","12:40",0.0,36.7,50.8,1010.4,180.0,1.7,4.4,235.3,0.56,24.9,27.4,"12:38:32",1
"23/07/28","12:50",0.0,37.2,50.5,1010.4,179.5,1.8,4.1,224.6,0.56,25.2,27.4,"12:47:36",1
"23/07/28","13:00",0.0,37.5,48.6,1010.7,201.2,1.1,2.2,191.4,0.55,24.9,27.5,"12:50:16",1
"23/07/28","13:10",0.0,38.1,49.4,1010.4,172.8,1.3,2.9,179.0,0.56,25.7,27.5,"13:00:32",1
"23/07/28","13:20",0.0,37.4,46.4,1010.2,57.3,0.8,2.2,36.9,0.21,24.0,27.7,"13:14:24",1
"23/07/28","13:30",0.0,37.1,47.2,1010.2,145.8,0.8,2.5,137.6,0.35,24.0,27.6,"13:29:04",1
"23/07/28","13:40",0.0,37.7,46.4,1010.2,120.0,0.8,2.4,139.6,0.45,24.3,27.7,"13:35:28",1
"23/07/28","13:50",0.0,38.0,43.1,1010.2,103.2,1.0,2.6,142.9,0.37,23.3,27.8,"13:40:08",1
"23/07/28","14:00",0.0,37.6,44.7,1010.0,148.3,1.6,3.4,234.2,0.47,23.6,27.9,"13:52:48",1
"23/07/28","14:10",0.0,38.1,43.9,1010.0,129.5,1.1,2.7,141.9,0.45,23.7,28.0,"14:00:24",1
"23/07/28","14:20",0.0,38.3,43.8,1010.0,134.9,1.1,2.7,133.9,0.44,23.9,27.9,"14:18:00",1
"23/07/28","14:30",0.0,37.8,44.0,1009.7,171.0,1.7,4.0,193.2,0.43,23.5,28.1,"14:25:44",1
"23/07/28","14:40",0.0,37.1,45.1,1009.7,145.3,1.6,3.4,150.0,0.32,23.3,27.9,"14:37:44",1
"23/07/28","14:50",0.0,37.6,45.3,1009.3,124.2,1.1,3.1,128.5,0.31,23.8,28.0,"14:43:04",1
"23/07/28","15:00",0.0,37.9,44.3,1009.3,100.9,1.0,2.0,95.3,0.29,23.7,27.8,"14:50:08",1
"23/07/28","15:10",0.0,38.1,43.7,1009.3,127.5,1.1,2.9,128.7,0.36,23.6,28.1,"15:05:36",1
"23/07/28","15:20",0.0,37.6,44.4,1009.3,256.7,0.5,1.6,70.1,0.15,23.5,28.1,"15:11:20",1
"23/07/28","15:30",0.0,37.3,44.8,1009.0,52.1,0.6,1.9,343.8,0.15,23.3,28.2,"15:24:56",1
"23/07/28","15:40",0.0,37.2,46.0,1008.8,14.7,0.7,2.2,346.0,0.15,23.7,28.1,"15:37:12",1
"23/07/28","15:50",0.0,36.7,46.6,1008.8,9.5,1.1,2.8,356.7,0.11,23.4,28.1,"15:40:56",1
"23/07/28","16:00",0.0,36.3,45.4,1008.3,16.1,0.6,1.9,38.0,0.09,22.6,28.1,"15:50:48",1
"23/07/28","16:10",0.0,35.9,50.9,1008.1,9.2,0.6,1.6,5.9,0.06,24.2,28.1,"16:01:12",1
"23/07/28","16:20",0.0,35.4,56.5,1008.1,0.8,0.7,1.4,8.7,0.04,25.5,27.9,"16:14:08",1
"23/07/28","16:30",0.0,33.8,59.1,1007.6,359.3,1.7,4.2,0.3,0.03,24.7,27.8,"16:26:08",1
"23/07/28","16:40",0.0,33.2,61.5,1007.6,2.9,1.6,3.5,11.1,0.02,24.8,27.9,"16:39:28",1
"23/07/28","16:50",0.0,32.7,63.0,1007.1,1.6,2.0,3.9,349.3,0.02,24.8,28.0,"16:46:00",1
"23/07/28","17:00",0.0,32.4,64.4,1006.9,352.4,2.0,3.9,352.5,0.02,24.9,27.8,"16:56:24",1
"23/07/28","17:10",0.0,32.2,65.3,1006.9,347.5,1.6,4.0,2.1,0.01,24.9,27.8,"17:00:24",1
"23/07/28","17:20",0.0,32.1,65.8,1006.9,340.4,1.5,3.3,355.0,0.01,24.9,27.8,"17:17:44",1
"23/07/28","17:30",0.0,32.2,65.4,1006.7,314.4,1.3,3.4,347.7,0.01,24.9,27.6,"17:23:20",1
"23/07/28","17:40",0.0,32.2,65.5,1006.4,290.3,0.8,1.9,321.0,0.00,25.0,27.8,"17:35:12",1
"23/07/28","17:50",0.0,32.1,65.7,1006.9,302.3,1.5,3.4,344.3,0.00,24.9,27.7,"17:44:24",1
"23/07/28","18:00",0.0,31.7,66.0,1006.7,321.0,1.5,3.3,319.3,0.00,24.6,27.6,"17:53:12",1
"23/07/28","18:10",0.0,31.4,66.6,1006.9,334.1,1.3,2.7,329.1,0.00,24.5,27.6,"18:07:04",1
"23/07/28","18:20",0.0,31.0,66.5,1006.7,330.9,1.5,3.5,344.8,0.00,24.1,27.7,"18:19:20",1
"23/07/28","18:30",0.0,30.8,66.4,1006.7,339.7,2.0,4.5,334.3,0.00,23.9,27.4,"18:20:32",1
"23/07/28","18:40",0.0,30.6,66.4,1007.1,346.1,1.0,2.0,340.5,0.00,23.7,27.5,"18:30:56",1
"23/07/28","18:50",0.0,30.4,67.0,1007.4,324.7,0.8,2.0,345.3,0.00,23.6,27.3,"18:48:32",1
"23/07/28","19:00",0.0,30.4,67.8,1007.1,326.7,1.0,2.4,344.3,0.00,23.8,27.3,"18:54:08",1
"23/07/28","19:10",0.0,30.2,69.6,1007.4,47.4,0.5,1.3,37.4,0.00,24.1,27.3,"19:05:52",1
"23/07/28","19:20",0.0,29.7,72.5,1007.1,246.8,0.8,1.9,234.9,0.00,24.3,27.2,"19:16:00",1
"23/07/28","19:30",0.0,29.6,73.5,1007.6,283.8,0.6,1.7,252.9,0.00,24.4,27.2,"19:22:16",1
"23/07/28","19:40",0.0,29.4,74.7,1008.1,299.9,0.7,1.6,271.6,0.00,24.5,27.3,"19:35:28",1
"23/07/28","19:50",0.0,29.2,73.8,1007.8,334.8,1.7,3.3,344.8,0.00,24.1,27.2,"19:41:04",1
"23/07/28","20:00",0.0,29.3,72.4,1008.3,341.4,1.5,3.1,349.5,0.00,23.9,27.0,"19:51:28",1
"23/07/28","20:10",0.0,29.3,71.8,1008.8,337.7,1.6,3.4,332.7,0.00,23.7,27.2,"20:07:04",1
"23/07/28","20:20",0.0,29.3,71.4,1008.8,348.4,1.2,2.5,332.4,0.00,23.6,27.2,"20:15:20",1
"23/07/28","20:30",0.0,29.4,72.0,1009.0,321.0,1.3,2.5,350.4,0.00,23.9,27.1,"20:27:12",1
"23/07/28","20:40",0.0,29.4,72.5,1008.8,334.6,1.6,3.2,349.7,0.00,24.0,27.1,"20:39:12",1
"23/07/28","20:50",0.0,29.2,73.0,1009.3,340.8,1.3,2.5,333.6,0.00,23.9,26.8,"20:44:24",1
"23/07/28","21:00",0.0,29.1,73.3,1009.5,329.1,1.2,2.5,350.1,0.00,23.9,26.9,"20:59:04",1
"23/07/28","21:10",0.0,29.0,73.6,1009.3,335.9,1.1,2.0,343.8,0.00,23.8,27.0,"21:02:56",1
"23/07/28","21:20",0.0,28.9,74.7,1009.7,336.7,0.8,2.0,337.6,0.00,24.0,26.8,"21:19:28",1
"23/07/28","21:30",0.0,28.5,76.5,1009.5,326.8,1.1,1.9,350.0,0.00,24.0,26.8,"21:23:04",1
"23/07/28","21:40",0.0,28.3,77.4,1009.5,302.4,1.1,2.4,326.0,0.00,24.0,26.7,"21:37:20",1
"23/07/28","21:50",0.0,28.3,77.9,1009.5,331.6,1.5,2.6,337.7,0.00,24.1,26.8,"21:46:32",1
"23/07/28","22:00",0.0,28.1,79.0,1009.7,344.7,1.1,2.0,346.4,0.00,24.2,26.8,"21:53:04",1
"23/07/28","22:10",0.0,27.6,79.6,1009.7,318.3,1.1,2.6,334.6,0.00,23.8,26.7,"22:09:12",1
"23/07/28","22:20",0.0,28.0,79.5,1009.5,336.5,1.3,2.9,330.6,0.00,24.2,26.6,"22:12:32",1
"23/07/28","22:30",0.0,27.7,79.9,1009.5,316.1,1.0,1.6,300.4,0.00,24.0,26.7,"22:21:12",1
"23/07/28","22:40",0.0,27.6,80.5,1009.7,317.7,1.0,2.0,342.3,0.00,24.0,26.6,"22:32:08",1
"23/07/28","22:50",0.0,27.5,81.4,1010.0,333.7,1.2,2.0,342.8,0.00,24.1,26.6,"22:46:00",1
"23/07/28","23:00",0.0,27.4,82.1,1009.7,324.3,1.1,2.1,335.9,0.00,24.1,26.6,"22:50:48",1
"23/07/28","23:10",0.0,27.5,82.5,1010.2,266.4,0.8,1.9,262.4,0.00,24.3,26.6,"23:06:40",1
"23/07/28","23:20",0.0,27.6,82.5,1010.0,270.2,0.8,1.9,295.3,0.00,24.4,26.4,"23:13:04",1
"23/07/28","23:30",0.0,27.7,82.2,1010.4,286.7,1.0,1.9,332.3,0.00,24.4,26.6,"23:24:32",1
"23/07/28","23:40",0.0,27.7,82.3,1010.0,357.5,0.5,1.2,336.7,0.00,24.4,26.5,"23:30:24",1
"23/07/28","23:50",0.0,27.6,82.9,1010.4,289.4,0.7,1.2,322.6,0.00,24.5,26.6,"23:48:40",1
"23/07/28","24:00",0.0,27.4,83.8,1010.4,323.3,0.8,1.2,331.6,0.00,24.5,26.2,"23:55:28",1
